This is the latest recevied weather packets stored in our database for station/object N6GPM. If no packets are shown the sender has not sent any weather packets the latest 10 day(s).
| Time | Temp. | Humidity | Pressure | Rain* | Wind** | Luminosity | Snow |
|---|---|---|---|---|---|---|---|
| 1777655500 | 15.56° C | 80% | 1018.4 hPa | 0 mm | - | 709 W/m² | - |
| 1777655197 | 15.56° C | 79% | 1018.5 hPa | 0 mm | - | 788 W/m² | - |
| 1777654893 | 15° C | 81% | 1018.5 hPa | 0 mm | - | 598 W/m² | - |
| 1777654591 | 15° C | 82% | 1018.2 hPa | 0 mm | - | 502 W/m² | - |
| 1777654288 | 14.44° C | 84% | 1018.4 hPa | 0 mm | - | 417 W/m² | - |
| 1777653987 | 14.44° C | 84% | 1018.5 hPa | 0 mm | - | 353 W/m² | - |
| 1777653683 | 14.44° C | 84% | 1018.4 hPa | 0 mm | - | 292 W/m² | - |
| 1777653379 | 13.89° C | 86% | 1018.1 hPa | 0 mm | - | 273 W/m² | - |
| 1777653076 | 13.89° C | 86% | 1018.6 hPa | 0 mm | - | 235 W/m² | - |
| 1777652772 | 13.89° C | 87% | 1018.5 hPa | 0 mm | - | 220 W/m² | - |
| 1777652469 | 13.33° C | 88% | 1018.3 hPa | 0 mm | - | 209 W/m² | - |
| 1777652167 | 13.33° C | 88% | 1018.5 hPa | 0 mm | - | 191 W/m² | - |
| 1777651863 | 13.33° C | 89% | 1018.6 hPa | 0 mm | - | 176 W/m² | - |
| 1777651560 | 13.33° C | 89% | 1018.4 hPa | 0 mm | - | 161 W/m² | - |
| 1777651257 | 12.78° C | 89% | 1018.7 hPa | 0 mm | - | 150 W/m² | - |
| 1777650953 | 13.33° C | 89% | 1018.6 hPa | 0 mm | - | 140 W/m² | - |
| 1777650651 | 12.78° C | 90% | 1018.5 hPa | 0 mm | - | 144 W/m² | - |
| 1777650348 | 12.78° C | 90% | 1018.7 hPa | 0 mm | - | 140 W/m² | - |
| 1777650045 | 12.78° C | 90% | 1018.3 hPa | 0 mm | - | 131 W/m² | - |
| 1777649742 | 12.22° C | 91% | 1018.4 hPa | 0 mm | - | 123 W/m² | - |
| 1777649439 | 12.22° C | 91% | 1018.7 hPa | 0 mm | - | 123 W/m² | - |
| 1777649135 | 12.22° C | 91% | 1018.5 hPa | 0 mm | - | 122 W/m² | - |
| 1777648833 | 12.22° C | 91% | 1018.5 hPa | 0 mm | - | 108 W/m² | - |
| 1777648530 | 12.22° C | 92% | 1018.3 hPa | 0 mm | - | 95 W/m² | - |
| 1777648227 | 12.22° C | 92% | 1018.4 hPa | 0 mm | - | 83 W/m² | - |
* Rain latest hour (hover to see other rain measurements)
** Current wind speed in m/s (hover to see current wind gust speed)